This is the latest recevied weather packets stored in our database for station/object EA3EH-1. If no packets are shown the sender has not sent any weather packets the latest 10 day(s).
| Time | Temp. | Humidity | Pressure | Rain* | Wind** | Luminosity | Snow |
|---|---|---|---|---|---|---|---|
| 1777580205 | 16.67° C | 48% | 1016 hPa | 0 mm | - | - | - |
| 1777579604 | 16.67° C | 47% | 1016 hPa | 0 mm | - | - | - |
| 1777579304 | 16.67° C | 46% | 1016 hPa | 0 mm | - | - | - |
| 1777579004 | 17.22° C | 46% | 1016 hPa | 0 mm | - | - | - |
| 1777578705 | 17.22° C | 46% | 1016 hPa | 0 mm | - | - | - |
| 1777577505 | 17.78° C | 43% | 1016 hPa | 0 mm | - | - | - |
| 1777577205 | 17.78° C | 43% | 1016 hPa | 0 mm | - | - | - |
| 1777576304 | 17.78° C | 40% | 1016 hPa | 0 mm | - | - | - |
| 1777573004 | 19.44° C | 33% | 1015 hPa | 0 mm | - | - | - |
| 1777572704 | 19.44° C | 32% | 1015 hPa | 0 mm | - | - | - |
| 1777572405 | 20° C | 30% | 1015 hPa | 0 mm | - | - | - |
| 1777572106 | 20° C | 28% | 1015 hPa | 0 mm | - | - | - |
| 1777571805 | 20.56° C | 27% | 1015 hPa | 0 mm | - | - | - |
| 1777571504 | 20.56° C | 25% | 1014 hPa | 0 mm | - | - | - |
| 1777571204 | 21.11° C | 22% | 1014 hPa | 0 mm | - | - | - |
| 1777570005 | 21.67° C | 21% | 1014 hPa | 0 mm | - | - | - |
| 1777569705 | 22.78° C | 18% | 1014 hPa | 0 mm | - | - | - |
| 1777569404 | 23.33° C | 21% | 1014 hPa | 0 mm | - | - | - |
| 1777569104 | 21.67° C | 22% | 1014 hPa | 0 mm | - | - | - |
| 1777568805 | 22.22° C | 22% | 1014 hPa | 0 mm | - | - | - |
| 1777568205 | 23.33° C | 18% | 1014 hPa | 0 mm | - | - | - |
| 1777567604 | 27.78° C | 14% | 1014 hPa | 0 mm | - | - | - |
| 1777567305 | 26.67° C | 14% | 1014 hPa | 0 mm | - | - | - |
| 1777566105 | 23.89° C | 15% | 1014 hPa | 0 mm | - | - | - |
| 1777565204 | 26.11° C | 17% | 1014 hPa | 0 mm | - | - | - |
* Rain latest hour (hover to see other rain measurements)
** Current wind speed in m/s (hover to see current wind gust speed)